Miscellaneous Hydrologic Data Report
Issued by NWS (Baltimore/Washington) Sterling, VA
1 of 50 available versions  First Miscellaneous Hydrologic Data Report Previous Miscellaneous Hydrologic Data Report  Print this page Close this Window


000
ASUS41 KLWX 210611
RWRLWX

REGIONAL WEATHER ROUNDUP
NATIONAL WEATHER SERVICE BALTIMORE MD/WASHINGTON DC
200 AM EDT SAT OCT 21 2017

Note: "FAIR" indicates few or no clouds below 12,000 feet
with no significant weather and/or obstructions to visibility.
 TC=TEMPERATURE CELSIUS

 * =Non NWS site. Station does not report precipitation (e.g. rain,
    snow, etc.), thunder, or fog.

DCZ001-MDZ009-015-VAZ040>042-051-053>054-210700-
WASHINGTON METRO

CITY           SKY/WX    TMP DP  RH WIND       PRES   REMARKS
WASHINGTON NAT CLEAR     58  51  78 CALM      30.28R
DULLES         CLEAR     47  46  97 CALM      30.28R
ANDREWS AFB    CLEAR     49  46  90 CALM      30.27R
FT BELVOIR     CLEAR     48  46  95 CALM      30.27S
QUANTICO       CLEAR     53  51  93 NW8       30.29R
COLLEGE PARK*  CLEAR     48  47  97 CALM      30.27R
LEESBURG*      CLEAR     46  46 100 CALM      30.29S
MANASSAS*      CLEAR     45  44  97 CALM      30.29R
GAITHERSBURG*  CLEAR     47  45  93 CALM      30.28R

$$

MDZ006>007-011-014-210700-
BALTIMORE METRO

CITY           SKY/WX    TMP DP  RH WIND       PRES   REMARKS
BWI AIRPORT    CLEAR     50  48  93 CALM      30.26R
MD SCIENCE CTR   N/A     60  44  55 MISG      30.26S
MARTIN STATE   CLEAR     52  50  93 CALM      30.27S
ANNAPOLIS      CLEAR     56  53  90 CALM      30.26R
FORT MEADE*    CLEAR     45  45 100 CALM      30.29R

$$

MDZ012-015-019>023-210700-
MARYLAND EASTERN SHORE

CITY           SKY/WX    TMP DP  RH WIND       PRES   REMARKS
OCEAN CITY     CLEAR     49  49 100 NW3       30.26S
SALISBURY      CLEAR     48  46  93 CALM      30.26S
CAMBRIDGE*     CLEAR     48  48 100 CALM      30.26S
EASTON*        CLEAR     52  50  92 CALM      30.29S

$$

MDZ017>025-210700-
SOUTHERN MARYLAND

CITY           SKY/WX    TMP DP  RH WIND       PRES   REMARKS
PATUXENT RIVER CLEAR     51  50  96 W5        30.26R
ST INIGOES     CLEAR     50  48  93 NE3       30.26R
LEONARDTOWN*   NOT AVBL

$$

MDZ003>005-210700-
NORTH CENTRAL MARYLAND

CITY           SKY/WX    TMP DP  RH WIND       PRES   REMARKS
FREDERICK*     CLEAR     45  45 100 CALM      30.30S
HAGERSTOWN APT CLEAR     53  41  63 CALM      30.28R
WESTMINSTER*   PTCLDY    52  45  76 CALM      30.28R

$$

MDZ501>502-210700-
WESTERN MARYLAND

CITY           SKY/WX    TMP DP  RH WIND       PRES   REMARKS
OAKLAND*       CLEAR     54  32  43 SE7       30.28S
CUMBERLAND*    CLEAR     46  43  87 CALM      30.33R

$$

VAZ025>031-210700-
SHENANDOAH VALLEY

CITY           SKY/WX    TMP DP  RH WIND       PRES   REMARKS
WINCHESTER*    CLEAR     46  43  87 CALM      30.28S
FRONT ROYAL*   CLEAR     50  45  81 MISG      30.28S
LURAY*         CLEAR     45  45 100 CALM      30.29S
NEW MARKET*    CLEAR     44  42  94 CALM      30.29S
STAUNTON*      CLEAR     43  41  94 CALM      30.31S
WAYNESBORO*    CLEAR     48  48  99 CALM      30.30R

$$

WVZ021-048>050-054>055-210700-
EASTERN WEST VIRGINIA PANHANDLE

CITY           SKY/WX    TMP DP  RH WIND       PRES   REMARKS
MARTINSBURG    CLEAR     45  41  86 CALM      30.28R
PETERSBURG*    CLEAR     42  41  96 CALM      30.30S

$$

VAZ036>039-050-210700-
CENTRAL FOOTHILLS

CITY           SKY/WX    TMP DP  RH WIND       PRES   REMARKS
CHARLOTTESVILL CLEAR     54  51  90 CALM      30.28F
CULPEPER*      CLEAR     45  43  93 CALM      30.30S
ORANGE*        CLEAR     46  45  93 CALM      30.28S
GORDONSVILLE*  CLEAR     48  48 100 CALM      30.28S
WARRENTON*     CLEAR     42  39  89 CALM      30.28S

$$

VAZ055>057-210700-
NORTH AND CENTRAL PIEDMONT

CITY           SKY/WX    TMP DP  RH WIND       PRES   REMARKS
FREDERICKSBRG* CLEAR     49  49 100 CALM      30.27S
STAFFORD*      CLEAR     46  46 100 CALM      30.33R

$$

NCZ024-NYZ072-PAZ021-071-VAZ022-071-210700-
OTHER REGIONAL OBSERVATIONS

CITY           SKY/WX    TMP DP  RH WIND       PRES   REMARKS
NEW YORK CITY  CLEAR     62  35  36 NW5       30.26R
PHILADELPHIA   PTCLDY    54  46  74 SW6       30.26R
PITTSBURGH     CLEAR     47  41  80 CALM      30.26S
ROANOKE        CLEAR     52  51  97 CALM      30.30S
RICHMOND       CLEAR     53  52  96 CALM      30.27S
RALEIGH        CLEAR     52  51  97 CALM      30.27S

$$

ANZ530>537-210700-
MARINE OBSERVATIONS

STATION/POSITION TIME  TEMP    WIND        PRES
                       AIR SEA DIR/SP/G
                 (UTC) (F)     (DEG/KT/KT) (MB)
THOMAS PT LIGHT  0600   61 67  280/  5/  6   N/A
BALT KEY BRIDGE  0536   63     330/  4/  5 1024.4R
COVE POINT       0536   64     350/  1/  2 1025.2S
LEWISETTA        0536   57 65  240/  2/  3 1024.6S
SOLOMONS ISLAND  0536   59 69  320/  2/  2 1024.4R
PINEY POINT      0542          290/  4/  4   N/A

$$


Close this window


The National Weather Service prepares its forecasts and other services in collaboration with agencies like the US Geological Survey, US Bureau of Reclamation, US Army Corps of Engineers, Natural Resource Conservation Service, National Park Service, ALERT Users Group, Bureau of Indian Affairs, and many state and local emergency managers across the country. For details, please click here.

National Weather Service
(Baltimore/Washington) Sterling Weather Forecast Office
43858 Weather Service Rd.
Sterling, VA 20166
(703) 996-2200
Page last modified: 21-Oct-2017 6:11 AM
Disclaimer
Credits
Glossary
Privacy Policy
About Us
Career Opportunities